DW8300 Weather Reports


time (UTC)temp
F
wind
direction
speed
knots
gust
knots
rain 1hr
in
rain 24hr
in
rain mn
in
humidity
%
barometer
mb
20260507151318 57 302 0.0 5.2 0.00 0.00 0.00 45 1012.2
20260507150804 58 275 0.9 6.1 0.00 0.01 0.00 43 1012.3
20260507150246 58 265 0.9 6.1 0.00 0.01 0.00 43 1012.4
20260507145753 58 327 0.9 7.8 0.00 0.01 0.00 43 1012.5
20260507145253 58 336 0.9 7.8 0.00 0.01 0.00 41 1012.6
20260507144758 58 293 0.9 7.8 0.00 0.01 0.00 45 1012.5
20260507144244 57 310 0.9 7.8 0.00 0.01 0.00 47 1012.5
20260507143744 57 38 0.9 7.0 0.00 0.01 0.00 45 1012.5
20260507143224 57 257 0.0 7.0 0.00 0.01 0.00 45 1012.5
20260507142716 57 351 0.9 7.0 0.00 0.01 0.00 49 1012.6
20260507142219 56 26 0.9 7.0 0.00 0.01 0.00 47 1012.7
20260507141719 56 262 0.0 5.2 0.00 0.01 0.00 46 1012.7
20260507141225 56 20 0.0 0.9 0.00 0.01 0.00 50 1012.8
20260507140731 55 348 0.0 4.3 0.00 0.01 0.00 49 1012.9
20260507140212 55 344 0.0 4.3 0.00 0.01 0.00 51 1013.0
20260507135701 55 270 0.0 0.0 0.00 0.01 0.00 51 1013.1
20260507135150 54 313 0.0 6.1 0.00 0.01 0.00 52 1013.2
20260507134642 54 310 0.0 1.7 0.00 0.01 0.00 52 1013.2
20260507134148 54 311 0.0 1.7 0.00 0.01 0.00 51 1013.2
20260507133649 54 91 0.0 1.7 0.00 0.01 0.00 51 1013.3
20260507133153 53 279 0.0 1.7 0.00 0.01 0.00 53 1013.4
20260507132639 53 266 0.0 0.0 0.00 0.03 0.00 57 1013.3
20260507132130 53 258 0.0 5.2 0.00 0.03 0.00 58 1013.3
20260507131610 53 257 0.0 5.2 0.00 0.04 0.00 58 1013.3
20260507131111 53 273 0.0 5.2 0.00 0.04 0.00 59 1013.3
20260507125959 53 324 0.0 0.9 0.00 0.04 0.00 60 1013.4
20260507125452 53 280 0.0 0.9 0.00 0.04 0.00 62 1013.4
20260507124936 53 273 0.0 0.0 0.00 0.04 0.00 60 1013.3
20260507124433 52 276 0.0 0.0 0.00 0.04 0.00 62 1013.3
20260507123317 52 275 0.0 0.0 0.00 0.05 0.00 64 1013.2
20260507122822 52 276 0.0 0.9 0.00 0.07 0.00 62 1013.3
20260507122315 52 265 0.0 4.3 0.00 0.07 0.00 62 1013.3
20260507121811 52 274 0.0 4.3 0.00 0.08 0.00 65 1013.2
20260507120638 51 301 0.0 0.0 0.00 0.09 0.00 65 1013.1
20260507120131 51 306 0.0 0.0 0.00 0.11 0.00 64 1013.1
20260507115635 51 308 0.0 0.0 0.00 0.11 0.00 66 1013.0
20260507115129 51 308 0.0 0.0 0.00 0.11 0.00 66 1013.0
20260507114635 51 310 0.0 0.0 0.00 0.13 0.00 66 1013.0
20260507114131 51 309 0.0 0.0 0.00 0.13 0.00 66 1012.9
20260507113640 51 309 0.0 0.0 0.00 0.13 0.00 65 1013.0
20260507113143 51 309 0.0 0.0 0.00 0.15 0.00 64 1013.0
20260507112640 51 309 0.0 0.0 0.00 0.16 0.00 64 1013.1
20260507112150 51 309 0.0 0.0 0.00 0.17 0.00 63 1013.1
20260507111650 51 309 0.0 0.0 0.00 0.17 0.00 64 1013.1
20260507111148 51 309 0.0 0.0 0.00 0.18 0.00 65 1013.0
20260507110634 51 309 0.0 0.0 0.00 0.18 0.00 62 1012.9
20260507110122 51 309 0.0 0.0 0.00 0.18 0.00 61 1012.8
20260507105612 51 309 0.0 0.0 0.00 0.18 0.00 61 1012.8
20260507105058 51 309 0.0 0.0 0.00 0.18 0.00 61 1012.7
20260507104540 51 309 0.0 0.0 0.00 0.18 0.00 61 1012.6
20260507104035 51 311 0.0 0.0 0.00 0.18 0.00 61 1012.4
20260507102301 51 348 0.0 0.0 0.00 0.18 0.00 59 1012.4
20260507101144 51 258 0.0 1.7 0.00 0.18 0.00 60 1012.1
20260507100654 51 347 0.0 0.0 0.00 0.18 0.00 60 1012.0
20260507100159 52 351 0.0 1.7 0.00 0.18 0.00 61 1011.9
20260507095643 52 13 0.0 1.7 0.00 0.18 0.00 63 1011.8
20260507095150 52 346 0.0 1.7 0.00 0.18 0.00 62 1011.7
20260507094657 52 273 0.0 2.6 0.00 0.18 0.00 63 1011.7
20260507094150 52 0 0.0 2.6 0.00 0.18 0.00 64 1011.7
20260507093635 52 328 0.0 0.0 0.00 0.18 0.00 65 1011.8
20260507093144 52 306 0.0 1.7 0.00 0.18 0.00 66 1011.8
20260507092630 52 298 0.0 0.0 0.00 0.18 0.00 67 1011.8
20260507092137 52 309 0.0 0.0 0.00 0.18 0.00 67 1011.8
20260507091010 52 309 0.0 0.0 0.00 0.18 0.00 66 1011.9
20260507085832 52 289 0.0 4.3 0.00 0.18 0.00 66 1011.8
20260507085312 52 315 0.0 4.3 0.00 0.18 0.00 66 1011.8
20260507084809 53 18 0.0 2.6 0.00 0.18 0.00 67 1011.8
20260507084311 53 351 0.0 2.6 0.00 0.18 0.00 67 1011.7
20260507083811 53 319 0.0 0.0 0.00 0.18 0.00 67 1011.6
20260507083253 53 277 0.0 0.0 0.00 0.18 0.00 67 1011.7
20260507082129 53 286 0.0 2.6 0.00 0.18 0.00 69 1011.5
20260507081626 53 322 0.0 0.0 0.00 0.18 0.00 70 1011.5
20260507081133 53 273 0.0 0.0 0.00 0.18 0.00 71 1011.4
20260507080630 53 273 0.0 0.9 0.00 0.18 0.00 72 1011.3
20260507080119 53 293 0.0 0.9 0.00 0.18 0.00 72 1011.2
20260507075601 53 292 0.0 0.0 0.00 0.18 0.00 72 1010.9
20260507075104 53 13 0.0 0.0 0.00 0.18 0.00 72 1011.0
20260507074546 53 0 0.0 2.6 0.00 0.18 0.00 72 1011.1
20260507074034 53 315 0.0 0.0 0.00 0.18 0.00 72 1011.0
20260507073541 53 15 0.0 0.9 0.00 0.18 0.00 72 1011.0
20260507073044 53 11 0.0 0.0 0.00 0.18 0.00 73 1011.0
20260507072539 53 9 0.0 0.0 0.00 0.18 0.00 72 1011.0
20260507072047 53 13 0.0 0.9 0.00 0.18 0.00 72 1011.0
20260507071532 53 47 0.0 1.7 0.00 0.18 0.00 72 1011.0
20260507071023 54 27 0.9 4.3 0.00 0.18 0.00 72 1011.1
20260507070525 54 348 0.0 4.3 0.00 0.18 0.00 72 1011.2
20260507065400 54 43 0.0 6.1 0.00 0.18 0.00 73 1011.3
20260507064843 54 44 0.0 3.5 0.00 0.18 0.00 74 1011.4
20260507064348 54 36 0.0 1.7 0.00 0.18 0.00 75 1011.5
20260507063852 54 36 0.0 0.9 0.00 0.18 0.00 75 1011.5
20260507063352 54 293 0.0 0.0 0.00 0.18 0.00 75 1011.4
20260507062226 54 267 0.0 0.0 0.00 0.18 0.00 75 1011.5
20260507061719 54 32 0.0 2.6 0.00 0.18 0.00 75 1011.5
20260507061207 54 314 0.0 0.0 0.00 0.18 0.00 75 1011.5
20260507060029 54 24 0.0 0.0 0.00 0.18 0.00 76 1011.4
20260507055534 55 321 0.0 0.0 0.00 0.18 0.00 76 1011.3
20260507055043 55 319 0.0 0.0 0.00 0.18 0.00 76 1011.3
20260507054551 55 47 0.0 0.9 0.00 0.18 0.00 76 1011.3
20260507054041 55 31 0.0 0.0 0.00 0.18 0.00 76 1011.2
20260507053527 55 29 0.0 0.0 0.00 0.18 0.00 76 1011.2
20260507053020 55 28 0.0 0.0 0.00 0.18 0.00 76 1011.3
20260507052516 55 22 0.0 0.0 0.00 0.18 0.00 77 1011.3
20260507052025 55 23 0.0 0.0 0.00 0.18 0.00 76 1011.2
20260507051509 55 24 0.0 0.0 0.00 0.18 0.00 76 1011.2
20260507050335 55 12 0.0 1.7 0.00 0.18 0.00 76 1011.1
20260507045820 55 311 0.0 1.7 0.00 0.18 0.00 76 1011.2
20260507045319 55 15 0.0 0.0 0.00 0.18 0.00 77 1011.2
20260507042228 55 11 0.0 1.7 0.00 0.18 0.00 78 1011.1
20260507041725 55 347 0.0 0.9 0.00 0.18 0.00 79 1011.1
20260507041223 55 327 0.0 2.6 0.00 0.18 0.00 79 1011.3
20260507040723 56 0 0.0 0.0 0.00 0.18 0.00 79 1011.2
20260507040215 56 28 0.0 1.7 0.00 0.18 0.00 80 1011.0
20260507035036 56 296 0.0 3.5 0.00 0.18 0.18 79 1010.9
20260507034539 56 16 0.0 7.0 0.00 0.18 0.18 79 1010.9
20260507034043 56 54 0.0 7.0 0.00 0.18 0.18 79 1011.0
20260507032908 56 320 0.0 6.1 0.00 0.18 0.18 80 1010.9
20260507032355 56 307 0.0 6.1 0.00 0.18 0.18 80 1011.2
20260507031851 57 300 0.0 1.7 0.00 0.18 0.18 79 1010.9
20260507031356 57 37 0.0 5.2 0.00 0.18 0.18 79 1010.8
20260507030851 57 277 0.0 3.5 0.00 0.18 0.18 79 1010.7
20260507030339 57 284 0.0 1.7 0.00 0.18 0.18 79 1010.7
20260507025227 57 329 0.0 0.9 0.00 0.18 0.18 78 1010.8
20260507024723 57 57 0.0 0.0 0.00 0.18 0.18 78 1010.6
20260507023556 57 283 0.0 7.8 0.00 0.18 0.18 78 1010.3
20260507023103 58 57 0.0 7.8 0.00 0.18 0.18 78 1010.3
20260507022605 58 24 0.0 7.8 0.00 0.18 0.18 78 1010.2
20260507021429 58 265 0.9 7.8 0.00 0.18 0.18 78 1010.3
20260507020923 58 34 0.0 5.2 0.00 0.18 0.18 78 1010.0
20260507020427 59 279 0.0 5.2 0.00 0.18 0.18 78 1010.2
20260507015927 59 348 0.0 1.7 0.00 0.18 0.18 78 1010.0
20260507015411 59 355 0.0 2.6 0.00 0.18 0.18 78 1010.0
20260507014903 59 287 0.0 0.0 0.00 0.18 0.18 78 1010.1
20260507014412 59 247 0.0 5.2 0.00 0.18 0.18 78 1010.1
20260507013858 59 260 0.0 5.2 0.00 0.18 0.18 78 1010.1
20260507013403 60 272 0.0 8.7 0.00 0.18 0.18 79 1009.8
20260507012848 60 59 0.9 8.7 0.00 0.18 0.18 79 1009.7
20260507012343 60 315 1.7 10.4 0.00 0.18 0.18 78 1009.8
20260507011826 60 300 1.7 10.4 0.00 0.18 0.18 78 1009.7
20260507011320 60 305 1.7 10.4 0.00 0.18 0.18 77 1009.4
20260507010827 60 60 1.7 10.4 0.00 0.18 0.18 77 1009.7
20260507010332 60 266 0.9 7.8 0.00 0.18 0.18 78 1009.9
20260507005815 61 321 0.9 7.8 0.00 0.18 0.18 79 1010.1
20260507005317 61 304 0.9 7.8 0.00 0.18 0.18 79 1010.3
20260507004812 61 275 0.0 5.2 0.00 0.18 0.18 81 1010.2
20260507004322 61 329 0.0 5.2 0.00 0.18 0.18 80 1009.9
20260507003218 62 9 0.0 0.0 0.00 0.18 0.18 80 1009.7
20260507002705 62 284 0.0 0.0 0.00 0.18 0.18 78 1010.0
20260507002215 62 259 0.0 6.1 0.00 0.18 0.18 79 1010.0
20260507001700 62 267 0.0 6.1 0.00 0.18 0.18 81 1009.8
20260507000535 63 265 0.0 5.2 0.00 0.18 0.18 84 1009.7
20260507000045 63 266 0.0 5.2 0.00 0.18 0.18 84 1009.6
20260506235542 63 293 0.0 5.2 0.00 0.18 0.18 85 1009.4
20260506235039 63 284 0.0 4.3 0.00 0.18 0.18 85 1009.2
20260506234548 64 274 0.0 5.2 0.00 0.18 0.18 85 1009.0
20260506234029 64 267 0.0 5.2 0.00 0.18 0.18 86 1009.2
20260506232905 64 249 0.0 2.6 0.00 0.18 0.18 86 1008.4
20260506232408 64 272 0.0 0.9 0.00 0.18 0.18 86 1008.5
20260506231849 64 267 0.0 2.6 0.00 0.18 0.18 85 1008.4
20260506230730 64 286 0.0 2.6 0.00 0.18 0.18 85 1008.3
20260506230234 65 279 0.0 2.6 0.00 0.18 0.18 86 1008.2
20260506224430 65 292 0.0 0.0 0.00 0.18 0.18 86 1008.2
20260506223926 65 289 0.0 0.0 0.00 0.18 0.18 87 1008.3
20260506223426 65 289 0.0 0.0 0.00 0.18 0.18 87 1008.2
20260506222914 65 288 0.0 0.9 0.00 0.18 0.18 86 1008.2
20260506222403 66 284 0.0 0.9 0.00 0.18 0.18 86 1008.2
20260506221901 66 279 0.0 0.0 0.00 0.18 0.18 86 1008.1
20260506221356 66 271 0.0 0.9 0.00 0.18 0.18 85 1008.2
20260506220905 66 238 0.0 0.0 0.00 0.18 0.18 85 1008.2
20260506220345 66 237 0.0 0.0 0.00 0.18 0.18 86 1008.0
20260506215845 66 234 0.0 0.0 0.00 0.18 0.18 86 1007.8
20260506215346 66 234 0.0 0.9 0.00 0.18 0.18 86 1007.8
20260506214828 66 234 0.0 0.0 0.00 0.18 0.18 86 1007.9
20260506214311 66 232 0.0 0.0 0.00 0.18 0.18 86 1008.0
20260506213805 66 233 0.0 0.0 0.00 0.18 0.18 86 1007.9
20260506213256 66 233 0.0 0.0 0.00 0.18 0.18 87 1007.9
20260506211446 65 232 0.0 0.0 0.00 0.18 0.18 88 1007.7
20260506210335 65 232 0.0 0.0 0.00 0.18 0.18 88 1007.5
20260506205844 65 232 0.0 0.0 0.00 0.18 0.18 88 1007.3
20260506205333 65 233 0.0 0.0 0.00 0.18 0.18 88 1007.3
20260506204829 65 233 0.0 0.0 0.00 0.18 0.18 89 1007.4
20260506203700 64 233 0.0 0.0 0.00 0.18 0.18 89 1007.2
20260506203150 64 233 0.0 0.0 0.00 0.18 0.18 89 1007.3
20260506202648 64 233 0.0 0.0 0.00 0.18 0.18 88 1007.3
20260506202145 64 232 0.0 0.0 0.00 0.18 0.18 88 1007.3
20260506201629 64 232 0.0 0.0 0.00 0.18 0.18 88 1007.3
20260506201125 64 232 0.0 0.0 0.00 0.18 0.18 88 1007.3
20260506200623 65 232 0.0 0.0 0.00 0.18 0.18 88 1007.4
20260506200106 64 232 0.0 0.0 0.00 0.18 0.18 87 1007.3
20260506195604 65 232 0.0 0.0 0.00 0.18 0.18 87 1007.4
20260506195059 65 233 0.0 0.0 0.00 0.18 0.18 87 1007.4
20260506194607 65 233 0.0 0.0 0.00 0.18 0.18 87 1007.4
20260506194107 65 233 0.0 0.0 0.00 0.18 0.18 87 1007.3
20260506193549 65 233 0.0 0.0 0.00 0.18 0.18 86 1007.4
20260506192424 65 232 0.0 0.0 0.00 0.18 0.18 86 1007.6
20260506191913 65 233 0.0 0.0 0.00 0.18 0.18 86 1007.6
20260506190752 65 235 0.0 0.0 0.00 0.18 0.18 85 1007.5
20260506190239 65 235 0.0 0.9 0.00 0.18 0.18 85 1007.6
20260506185733 65 225 0.0 0.0 0.00 0.18 0.18 85 1007.5
20260506185231 65 234 0.0 0.0 0.00 0.18 0.18 85 1007.6
20260506184719 65 233 0.0 0.9 0.00 0.18 0.18 85 1007.6
20260506184204 65 236 0.0 3.5 0.00 0.18 0.18 84 1007.6
20260506183704 65 249 0.0 3.5 0.00 0.18 0.18 85 1007.6
20260506182536 64 245 0.0 0.0 0.00 0.18 0.18 86 1007.6
20260506180733 64 238 0.0 0.9 0.00 0.18 0.18 87 1007.7
20260506180219 64 157 0.0 3.5 0.00 0.18 0.18 87 1007.8
20260506175057 64 219 0.0 7.0 0.00 0.18 0.18 85 1007.8
20260506174552 64 223 0.0 7.0 0.00 0.18 0.18 84 1007.9
20260506174058 64 178 0.0 0.0 0.00 0.18 0.18 84 1007.8
20260506172942 64 207 0.0 3.5 0.00 0.18 0.18 85 1007.7
20260506172423 64 244 0.0 3.5 0.00 0.18 0.18 84 1007.7
20260506171914 64 225 0.0 3.5 0.00 0.18 0.18 85 1007.7
20260506171359 64 205 0.0 3.5 0.00 0.18 0.18 85 1007.7
20260506170845 64 138 0.0 0.9 0.00 0.18 0.18 86 1007.7
20260506170354 64 181 0.0 8.7 0.00 0.18 0.18 87 1007.7
20260506165905 63 229 0.0 8.7 0.00 0.18 0.18 88 1007.8
20260506165401 63 228 0.0 8.7 0.00 0.18 0.18 88 1007.8
20260506164904 63 217 0.0 7.8 0.00 0.18 0.18 88 1007.8
20260506164345 63 232 0.0 5.2 0.00 0.18 0.18 89 1007.8
20260506163829 63 221 0.0 3.5 0.00 0.18 0.18 89 1007.8
20260506163323 62 173 0.0 0.0 0.00 0.18 0.18 90 1007.9
20260506162818 62 193 0.0 0.0 0.00 0.18 0.18 91 1007.9
20260506162326 61 142 0.0 0.9 0.00 0.18 0.18 91 1008.0
20260506161820 61 244 0.0 0.0 0.00 0.18 0.18 91 1008.0
20260506161304 61 194 0.0 3.5 0.00 0.18 0.18 91 1007.9
20260506160111 60 207 0.0 0.9 0.00 0.18 0.18 92 1007.8
20260506154332 60 144 0.0 0.9 0.00 0.18 0.18 92 1008.2
20260506153826 60 221 0.0 0.0 0.00 0.18 0.18 92 1008.1
20260506153317 60 200 0.0 0.9 0.00 0.18 0.18 92 1007.9
20260506152143 60 210 0.0 0.9 0.00 0.18 0.18 92 1007.9
20260506151629 60 246 0.0 0.0 0.00 0.18 0.18 93 1007.9